Dati Storici

Data ora Umidita' aria (%) Temperatura aria (°C) Rad globale (W/m²) Gonioanemometro (°) Tacoanemometro (m/s) Pioggia (mm)
30-10-2012 03:30 80.6 % 3.153 1.326 355.373 1.937 0
30-10-2012 03:20 80.4 % 3.251 1.415 30.33 1.445 0
30-10-2012 03:10 80.3 % 3.357 1.326 25.281 1.65 0
30-10-2012 03:00 80.2 % 3.554 1.091 350.899 0.653 0
30-10-2012 02:50 80.1 % 3.767 1.309 45.974 1.013 0
30-10-2012 02:40 80.2 % 3.927 1.617 24.697 1.346 0
30-10-2012 02:30 80 % 4.057 1.347 28.115 0.75 0
30-10-2012 02:20 79.6 % 4.343 1.347 16.022 0.347 0
30-10-2012 02:10 79.2 % 4.485 1.347 47.527 1.484 0
30-10-2012 02:00 78.9 % 4.545 1.386 22.45 1.255 0
30-10-2012 01:50 79.5 % 4.746 1.578 27.474 1.506 0
30-10-2012 01:40 80 % 4.843 1.091 4.788 1.144 0
30-10-2012 01:30 80.2 % 4.968 1.142 35.349 0.653 0
30-10-2012 01:20 80.9 % 5.109 1.155 28.488 1.303 0
30-10-2012 01:10 82.4 % 5.124 1.029 52.689 1.204 0
30-10-2012 01:00 83.7 % 4.956 0.888 14.854 1.409 0
30-10-2012 00:50 82.1 % 4.884 0.785 62.827 0.448 0
30-10-2012 00:40 83.1 % 5.31 1.247 86.807 0.63 0
30-10-2012 00:30 80.7 % 5.301 0.99 74.478 0.079 0
30-10-2012 00:20 81.7 % 5.872 1.015 320.306 0.191 0

I dati sono presentati in modo automatico a scopo informativo. In seguito a verifica i dati possono subire modifiche o essere invalidati e non riportati negli archivi definitivi.